PRIVATE WETTERSTATION BILLIGHEIM-ALLFELD                       ZURCK
Wetterdaten: Samstag, 23.12.2017
Datum Zeit Temp. A. Temp. A. min Temp. A. max Feuchte A. Luftdruck Regen Wind Richtung Richtung Sonnenschein ET Solar Taupunkt Windchill Windben Empfang
23.12.2017 00:00 7,1 C 7,1 C 7,1 C 92 % 1035,0 hPa 0,0 l/m 1,6 km/h (1 Bft) W 270 0 min 0,000 mm 0 W/m 5,9 C 7,1 C 6,4 km/h (2 Bft) 100 %
23.12.2017 00:10 7,1 C 7,1 C 7,1 C 92 % 1035,3 hPa 0,0 l/m 1,6 km/h (1 Bft) W 270 0 min 0,000 mm 0 W/m 5,9 C 7,1 C 6,4 km/h (2 Bft) 100 %
23.12.2017 00:20 7,1 C 7,1 C 7,1 C 92 % 1035,2 hPa 0,0 l/m 0,0 km/h (0 Bft) N 0 0 min 0,000 mm 0 W/m 5,9 C 7,1 C 0,0 km/h (0 Bft) 100 %
23.12.2017 00:30 7,0 C 7,0 C 7,1 C 92 % 1035,3 hPa 0,0 l/m 0,0 km/h (0 Bft) N 0 0 min 0,000 mm 0 W/m 5,8 C 7,0 C 0,0 km/h (0 Bft) 100 %
23.12.2017 00:40 7,0 C 7,0 C 7,0 C 92 % 1035,2 hPa 0,0 l/m 1,6 km/h (1 Bft) W 270 0 min 0,000 mm 0 W/m 5,8 C 7,0 C 6,4 km/h (2 Bft) 100 %
23.12.2017 00:50 7,1 C 7,0 C 7,1 C 92 % 1035,2 hPa 0,0 l/m 3,2 km/h (1 Bft) W 270 0 min 0,000 mm 0 W/m 5,9 C 7,1 C 8,0 km/h (2 Bft) 100 %
23.12.2017 01:00 7,1 C 7,1 C 7,1 C 92 % 1035,1 hPa 0,0 l/m 3,2 km/h (1 Bft) W 270 0 min 0,000 mm 0 W/m 5,9 C 7,1 C 6,4 km/h (2 Bft) 100 %
23.12.2017 01:10 7,1 C 7,1 C 7,1 C 92 % 1035,0 hPa 0,0 l/m 3,2 km/h (1 Bft) W 270 0 min 0,000 mm 0 W/m 5,9 C 7,1 C 6,4 km/h (2 Bft) 100 %
23.12.2017 01:20 7,2 C 7,1 C 7,2 C 92 % 1035,0 hPa 0,0 l/m 0,0 km/h (0 Bft) N 0 0 min 0,000 mm 0 W/m 6,0 C 7,2 C 0,0 km/h (0 Bft) 100 %
23.12.2017 01:30 7,2 C 7,2 C 7,2 C 92 % 1035,0 hPa 0,0 l/m 1,6 km/h (1 Bft) W-SW 247 0 min 0,000 mm 0 W/m 6,0 C 7,2 C 8,0 km/h (2 Bft) 100 %
23.12.2017 01:40 7,2 C 7,2 C 7,2 C 92 % 1035,0 hPa 0,0 l/m 4,8 km/h (1 Bft) W-NW 292 0 min 0,000 mm 0 W/m 6,0 C 7,2 C 8,0 km/h (2 Bft) 100 %
23.12.2017 01:50 7,2 C 7,2 C 7,2 C 92 % 1034,9 hPa 0,0 l/m 3,2 km/h (1 Bft) W 270 0 min 0,000 mm 0 W/m 6,0 C 7,2 C 8,0 km/h (2 Bft) 100 %
23.12.2017 02:00 7,2 C 7,2 C 7,2 C 92 % 1035,0 hPa 0,0 l/m 3,2 km/h (1 Bft) W 270 0 min 0,000 mm 0 W/m 6,0 C 7,2 C 8,0 km/h (2 Bft) 100 %
23.12.2017 02:10 7,2 C 7,2 C 7,2 C 92 % 1034,8 hPa 0,0 l/m 3,2 km/h (1 Bft) W 270 0 min 0,000 mm 0 W/m 6,0 C 7,2 C 6,4 km/h (2 Bft) 100 %
23.12.2017 02:20 7,2 C 7,2 C 7,2 C 92 % 1034,7 hPa 0,0 l/m 1,6 km/h (1 Bft) W 270 0 min 0,000 mm 0 W/m 6,0 C 7,2 C 8,0 km/h (2 Bft) 100 %
23.12.2017 02:30 7,2 C 7,2 C 7,2 C 92 % 1034,7 hPa 0,0 l/m 3,2 km/h (1 Bft) W-SW 247 0 min 0,000 mm 0 W/m 6,0 C 7,2 C 8,0 km/h (2 Bft) 100 %
23.12.2017 02:40 7,1 C 7,1 C 7,2 C 92 % 1034,7 hPa 0,0 l/m 3,2 km/h (1 Bft) W-SW 247 0 min 0,000 mm 0 W/m 5,9 C 7,1 C 8,0 km/h (2 Bft) 100 %
23.12.2017 02:50 7,1 C 7,1 C 7,2 C 92 % 1034,7 hPa 0,0 l/m 1,6 km/h (1 Bft) W-SW 247 0 min 0,000 mm 0 W/m 5,9 C 7,1 C 6,4 km/h (2 Bft) 100 %
23.12.2017 03:00 7,1 C 7,1 C 7,1 C 92 % 1034,9 hPa 0,0 l/m 3,2 km/h (1 Bft) W-SW 247 0 min 0,000 mm 0 W/m 5,9 C 7,1 C 8,0 km/h (2 Bft) 100 %
23.12.2017 03:10 7,1 C 7,1 C 7,1 C 92 % 1034,8 hPa 0,0 l/m 3,2 km/h (1 Bft) W-NW 292 0 min 0,000 mm 0 W/m 5,9 C 7,1 C 8,0 km/h (2 Bft) 100 %
23.12.2017 03:20 7,1 C 7,1 C 7,1 C 92 % 1034,7 hPa 0,0 l/m 3,2 km/h (1 Bft) W 270 0 min 0,000 mm 0 W/m 5,9 C 7,1 C 8,0 km/h (2 Bft) 100 %
23.12.2017 03:30 7,1 C 7,1 C 7,1 C 92 % 1034,8 hPa 0,0 l/m 3,2 km/h (1 Bft) W 270 0 min 0,000 mm 0 W/m 5,9 C 7,1 C 8,0 km/h (2 Bft) 100 %
23.12.2017 03:40 7,0 C 7,0 C 7,1 C 92 % 1034,8 hPa 0,0 l/m 3,2 km/h (1 Bft) W 270 0 min 0,000 mm 0 W/m 5,8 C 7,0 C 8,0 km/h (2 Bft) 100 %
23.12.2017 03:50 7,0 C 6,9 C 7,0 C 92 % 1034,6 hPa 0,0 l/m 0,0 km/h (0 Bft) W 270 0 min 0,000 mm 0 W/m 5,8 C 7,0 C 3,2 km/h (1 Bft) 90 %
23.12.2017 04:00 6,9 C 6,9 C 7,0 C 92 % 1034,4 hPa 0,0 l/m 1,6 km/h (1 Bft) W 270 0 min 0,000 mm 0 W/m 5,7 C 6,9 C 8,0 km/h (2 Bft) 100 %
23.12.2017 04:10 6,9 C 6,9 C 6,9 C 92 % 1034,5 hPa 0,0 l/m 3,2 km/h (1 Bft) W 270 0 min 0,000 mm 0 W/m 5,7 C 6,9 C 4,8 km/h (1 Bft) 100 %
23.12.2017 04:20 6,8 C 6,8 C 6,9 C 92 % 1034,5 hPa 0,0 l/m 1,6 km/h (1 Bft) W 270 0 min 0,000 mm 0 W/m 5,6 C 6,8 C 4,8 km/h (1 Bft) 100 %
23.12.2017 04:30 6,8 C 6,8 C 6,8 C 92 % 1034,5 hPa 0,0 l/m 1,6 km/h (1 Bft) W 270 0 min 0,000 mm 0 W/m 5,6 C 6,8 C 6,4 km/h (2 Bft) 100 %
23.12.2017 04:40 6,8 C 6,8 C 6,8 C 92 % 1034,4 hPa 0,0 l/m 0,0 km/h (0 Bft) W 270 0 min 0,000 mm 0 W/m 5,6 C 6,8 C 3,2 km/h (1 Bft) 100 %
23.12.2017 04:50 6,8 C 6,8 C 6,8 C 92 % 1034,1 hPa 0,0 l/m 1,6 km/h (1 Bft) W 270 0 min 0,000 mm 0 W/m 5,6 C 6,8 C 6,4 km/h (2 Bft) 100 %
23.12.2017 05:00 6,8 C 6,8 C 6,8 C 92 % 1034,1 hPa 0,0 l/m 3,2 km/h (1 Bft) W 270 0 min 0,000 mm 0 W/m 5,6 C 6,8 C 11,3 km/h (2 Bft) 100 %
23.12.2017 05:10 6,8 C 6,8 C 6,8 C 92 % 1033,9 hPa 0,0 l/m 4,8 km/h (1 Bft) W-SW 247 0 min 0,000 mm 0 W/m 5,6 C 6,8 C 9,7 km/h (2 Bft) 100 %
23.12.2017 05:20 6,8 C 6,8 C 6,8 C 92 % 1033,9 hPa 0,0 l/m 4,8 km/h (1 Bft) W-SW 247 0 min 0,000 mm 0 W/m 5,6 C 6,8 C 11,3 km/h (2 Bft) 100 %
23.12.2017 05:30 6,8 C 6,8 C 6,8 C 92 % 1033,8 hPa 0,0 l/m 4,8 km/h (1 Bft) W-SW 247 0 min 0,000 mm 0 W/m 5,6 C 6,8 C 9,7 km/h (2 Bft) 100 %
23.12.2017 05:40 6,8 C 6,8 C 6,8 C 92 % 1033,9 hPa 0,0 l/m 3,2 km/h (1 Bft) W-SW 247 0 min 0,000 mm 0 W/m 5,6 C 6,8 C 8,0 km/h (2 Bft) 100 %
23.12.2017 05:50 6,8 C 6,7 C 6,8 C 92 % 1034,0 hPa 0,0 l/m 4,8 km/h (1 Bft) W-SW 247 0 min 0,000 mm 0 W/m 5,6 C 6,8 C 8,0 km/h (2 Bft) 100 %
23.12.2017 06:00 6,8 C 6,7 C 6,8 C 92 % 1034,0 hPa 0,0 l/m 4,8 km/h (1 Bft) W 270 0 min 0,000 mm 0 W/m 5,6 C 6,8 C 9,7 km/h (2 Bft) 100 %
23.12.2017 06:10 6,8 C 6,7 C 6,8 C 92 % 1034,3 hPa 0,0 l/m 4,8 km/h (1 Bft) W 270 0 min 0,000 mm 0 W/m 5,6 C 6,8 C 9,7 km/h (2 Bft) 100 %
23.12.2017 06:20 6,8 C 6,8 C 6,8 C 92 % 1034,2 hPa 0,0 l/m 4,8 km/h (1 Bft) W 270 0 min 0,000 mm 0 W/m 5,6 C 6,8 C 14,5 km/h (3 Bft) 100 %
23.12.2017 06:30 6,8 C 6,8 C 6,8 C 92 % 1033,9 hPa 0,0 l/m 6,4 km/h (2 Bft) W-SW 247 0 min 0,000 mm 0 W/m 5,6 C 6,8 C 14,5 km/h (3 Bft) 100 %
23.12.2017 06:40 6,8 C 6,7 C 6,8 C 92 % 1033,9 hPa 0,0 l/m 4,8 km/h (1 Bft) W 270 0 min 0,000 mm 0 W/m 5,6 C 6,8 C 16,1 km/h (3 Bft) 100 %
23.12.2017 06:50 6,7 C 6,7 C 6,8 C 92 % 1033,9 hPa 0,0 l/m 3,2 km/h (1 Bft) W-SW 247 0 min 0,000 mm 0 W/m 5,5 C 6,7 C 11,3 km/h (2 Bft) 100 %
23.12.2017 07:00 6,7 C 6,7 C 6,7 C 92 % 1033,8 hPa 0,0 l/m 3,2 km/h (1 Bft) W-SW 247 0 min 0,000 mm 0 W/m 5,5 C 6,7 C 16,1 km/h (3 Bft) 100 %
23.12.2017 07:10 6,7 C 6,7 C 6,7 C 92 % 1033,7 hPa 0,0 l/m 4,8 km/h (1 Bft) W-SW 247 0 min 0,000 mm 0 W/m 5,5 C 6,7 C 9,7 km/h (2 Bft) 100 %
23.12.2017 07:20 6,7 C 6,7 C 6,7 C 92 % 1033,7 hPa 0,0 l/m 4,8 km/h (1 Bft) W-SW 247 0 min 0,000 mm 0 W/m 5,5 C 6,7 C 9,7 km/h (2 Bft) 100 %
23.12.2017 07:30 6,7 C 6,7 C 6,7 C 92 % 1033,7 hPa 0,0 l/m 3,2 km/h (1 Bft) W 270 0 min 0,000 mm 0 W/m 5,5 C 6,7 C 11,3 km/h (2 Bft) 100 %
23.12.2017 07:40 6,7 C 6,7 C 6,7 C 92 % 1033,6 hPa 0,0 l/m 3,2 km/h (1 Bft) W 270 0 min 0,000 mm 0 W/m 5,5 C 6,7 C 11,3 km/h (2 Bft) 100 %
23.12.2017 07:50 6,7 C 6,7 C 6,7 C 92 % 1033,6 hPa 0,0 l/m 3,2 km/h (1 Bft) W 270 0 min 0,000 mm 0 W/m 5,5 C 6,7 C 8,0 km/h (2 Bft) 100 %
23.12.2017 08:00 6,7 C 6,7 C 6,7 C 92 % 1033,6 hPa 0,0 l/m 1,6 km/h (1 Bft) W 270 0 min 0,000 mm 0 W/m 5,5 C 6,7 C 6,4 km/h (2 Bft) 100 %
23.12.2017 08:10 6,6 C 6,6 C 6,7 C 92 % 1033,6 hPa 0,0 l/m 4,8 km/h (1 Bft) W 270 0 min 0,000 mm 0 W/m 5,4 C 6,6 C 9,7 km/h (2 Bft) 100 %
23.12.2017 08:20 6,6 C 6,6 C 6,7 C 92 % 1033,6 hPa 0,0 l/m 3,2 km/h (1 Bft) W-SW 247 0 min 0,000 mm 0 W/m 5,4 C 6,6 C 8,0 km/h (2 Bft) 100 %
23.12.2017 08:30 6,6 C 6,6 C 6,6 C 92 % 1033,8 hPa 0,0 l/m 4,8 km/h (1 Bft) W-SW 247 0 min 0,000 mm 0 W/m 5,4 C 6,6 C 11,3 km/h (2 Bft) 100 %
23.12.2017 08:40 6,6 C 6,6 C 6,6 C 92 % 1033,8 hPa 0,0 l/m 4,8 km/h (1 Bft) W-SW 247 0 min 0,000 mm 0 W/m 5,4 C 6,6 C 11,3 km/h (2 Bft) 92 %
23.12.2017 08:50 6,6 C 6,6 C 6,6 C 92 % 1033,9 hPa 0,0 l/m 3,2 km/h (1 Bft) W 270 0 min 0,000 mm 0 W/m 5,4 C 6,6 C 8,0 km/h (2 Bft) 100 %
23.12.2017 09:00 6,6 C 6,6 C 6,6 C 92 % 1033,9 hPa 0,0 l/m 3,2 km/h (1 Bft) W-SW 247 0 min 0,000 mm 5 W/m 5,4 C 6,6 C 9,7 km/h (2 Bft) 100 %
23.12.2017 09:10 6,6 C 6,6 C 6,6 C 92 % 1033,9 hPa 0,0 l/m 4,8 km/h (1 Bft) W-SW 247 0 min 0,000 mm 7 W/m 5,4 C 6,6 C 11,3 km/h (2 Bft) 100 %
23.12.2017 09:20 6,7 C 6,6 C 6,7 C 92 % 1034,0 hPa 0,0 l/m 6,4 km/h (2 Bft) W-SW 247 0 min 0,000 mm 12 W/m 5,5 C 6,7 C 19,3 km/h (3 Bft) 100 %
23.12.2017 09:30 6,7 C 6,6 C 6,7 C 92 % 1034,2 hPa 0,0 l/m 4,8 km/h (1 Bft) W-SW 247 0 min 0,000 mm 11 W/m 5,5 C 6,7 C 11,3 km/h (2 Bft) 100 %
23.12.2017 09:40 6,7 C 6,7 C 6,7 C 92 % 1034,2 hPa 0,0 l/m 4,8 km/h (1 Bft) W-SW 247 0 min 0,000 mm 21 W/m 5,5 C 6,7 C 14,5 km/h (3 Bft) 100 %
23.12.2017 09:50 6,7 C 6,7 C 6,7 C 92 % 1034,2 hPa 0,0 l/m 6,4 km/h (2 Bft) W-SW 247 0 min 0,000 mm 23 W/m 5,5 C 6,7 C 16,1 km/h (3 Bft) 100 %
23.12.2017 10:00 6,8 C 6,7 C 6,8 C 92 % 1034,1 hPa 0,0 l/m 4,8 km/h (1 Bft) W-SW 247 0 min 0,000 mm 26 W/m 5,6 C 6,8 C 14,5 km/h (3 Bft) 100 %
23.12.2017 10:10 6,8 C 6,8 C 6,8 C 92 % 1034,3 hPa 0,0 l/m 4,8 km/h (1 Bft) W-SW 247 0 min 0,000 mm 35 W/m 5,6 C 6,8 C 9,7 km/h (2 Bft) 100 %
23.12.2017 10:20 6,8 C 6,8 C 6,8 C 92 % 1034,3 hPa 0,0 l/m 6,4 km/h (2 Bft) W-SW 247 0 min 0,000 mm 39 W/m 5,6 C 6,8 C 14,5 km/h (3 Bft) 100 %
23.12.2017 10:30 6,9 C 6,8 C 6,9 C 92 % 1034,3 hPa 0,0 l/m 6,4 km/h (2 Bft) W-SW 247 0 min 0,000 mm 44 W/m 5,7 C 6,9 C 17,7 km/h (3 Bft) 100 %
23.12.2017 10:40 6,9 C 6,8 C 6,9 C 92 % 1034,2 hPa 0,0 l/m 8,0 km/h (2 Bft) W-SW 247 0 min 0,000 mm 42 W/m 5,7 C 5,6 C 17,7 km/h (3 Bft) 100 %
23.12.2017 10:50 6,9 C 6,8 C 6,9 C 92 % 1034,2 hPa 0,0 l/m 8,0 km/h (2 Bft) W-SW 247 0 min 0,000 mm 40 W/m 5,7 C 5,6 C 19,3 km/h (3 Bft) 100 %
23.12.2017 11:00 6,9 C 6,9 C 6,9 C 92 % 1034,2 hPa 0,0 l/m 6,4 km/h (2 Bft) W-SW 247 0 min 0,025 mm 39 W/m 5,7 C 6,9 C 16,1 km/h (3 Bft) 100 %
23.12.2017 11:10 6,9 C 6,9 C 6,9 C 92 % 1034,2 hPa 0,0 l/m 6,4 km/h (2 Bft) W-SW 247 0 min 0,000 mm 26 W/m 5,7 C 6,9 C 16,1 km/h (3 Bft) 91 %
23.12.2017 11:20 6,9 C 6,9 C 6,9 C 92 % 1034,1 hPa 0,0 l/m 4,8 km/h (1 Bft) W-SW 247 0 min 0,000 mm 42 W/m 5,7 C 6,9 C 11,3 km/h (2 Bft) 100 %
23.12.2017 11:30 6,9 C 6,9 C 6,9 C 92 % 1034,0 hPa 0,0 l/m 6,4 km/h (2 Bft) W-SW 247 0 min 0,000 mm 42 W/m 5,7 C 6,9 C 17,7 km/h (3 Bft) 100 %
23.12.2017 11:40 6,9 C 6,9 C 6,9 C 92 % 1034,0 hPa 0,0 l/m 4,8 km/h (1 Bft) W-SW 247 0 min 0,000 mm 33 W/m 5,7 C 6,9 C 16,1 km/h (3 Bft) 100 %
23.12.2017 12:00 6,9 C 6,9 C 6,9 C 92 % 1033,9 hPa 0,0 l/m 5,8 km/h (2 Bft) W-SW 255 0 min 0,026 mm 18 W/m 5,7 C 6,9 C 14,5 km/h (3 Bft) 100 %
23.12.2017 12:10 6,8 C 6,8 C 6,9 C 92 % 1033,8 hPa 0,0 l/m 6,9 km/h (2 Bft) W-SW 251 0 min 0,000 mm 14 W/m 5,6 C 6,4 C 16,1 km/h (3 Bft) 100 %
23.12.2017 12:20 6,8 C 6,8 C 6,8 C 92 % 1033,8 hPa 0,0 l/m 5,5 km/h (1 Bft) W 266 0 min 0,000 mm 21 W/m 5,6 C 6,8 C 16,1 km/h (3 Bft) 100 %
23.12.2017 12:30 6,8 C 6,8 C 6,8 C 92 % 1033,8 hPa 0,0 l/m 5,7 km/h (1 Bft) W-SW 241 0 min 0,000 mm 16 W/m 5,6 C 6,8 C 17,7 km/h (3 Bft) 100 %
23.12.2017 12:40 6,8 C 6,7 C 6,8 C 92 % 1033,6 hPa 0,0 l/m 7,1 km/h (2 Bft) W-SW 257 0 min 0,000 mm 39 W/m 5,6 C 6,2 C 19,3 km/h (3 Bft) 100 %
23.12.2017 12:50 6,8 C 6,7 C 6,8 C 92 % 1033,4 hPa 0,0 l/m 6,2 km/h (2 Bft) W-SW 256 0 min 0,000 mm 18 W/m 5,6 C 6,8 C 16,1 km/h (3 Bft) 99 %
23.12.2017 13:00 6,7 C 6,7 C 6,8 C 92 % 1033,4 hPa 0,0 l/m 6,7 km/h (2 Bft) SW 217 0 min 0,025 mm 16 W/m 5,5 C 6,5 C 19,3 km/h (3 Bft) 100 %
23.12.2017 13:10 6,7 C 6,7 C 6,8 C 92 % 1033,5 hPa 0,0 l/m 6,5 km/h (2 Bft) W 264 0 min 0,000 mm 23 W/m 5,5 C 6,6 C 17,7 km/h (3 Bft) 100 %
23.12.2017 13:20 6,8 C 6,7 C 6,8 C 92 % 1033,5 hPa 0,0 l/m 6,7 km/h (2 Bft) S-SW 208 0 min 0,000 mm 33 W/m 5,6 C 6,6 C 19,3 km/h (3 Bft) 100 %
23.12.2017 13:30 6,8 C 6,7 C 6,8 C 92 % 1033,4 hPa 0,0 l/m 7,4 km/h (2 Bft) SW 233 0 min 0,000 mm 19 W/m 5,6 C 6,0 C 19,3 km/h (3 Bft) 100 %
23.12.2017 13:40 6,7 C 6,7 C 6,8 C 92 % 1033,4 hPa 0,0 l/m 6,1 km/h (2 Bft) W-SW 257 0 min 0,000 mm 21 W/m 5,5 C 6,7 C 16,1 km/h (3 Bft) 100 %
23.12.2017 13:50 6,7 C 6,7 C 6,7 C 92 % 1033,3 hPa 0,0 l/m 6,8 km/h (2 Bft) W 275 0 min 0,000 mm 16 W/m 5,5 C 6,4 C 16,1 km/h (3 Bft) 100 %
23.12.2017 14:00 6,7 C 6,7 C 6,7 C 92 % 1033,1 hPa 0,0 l/m 7,1 km/h (2 Bft) SW 217 0 min 0,026 mm 21 W/m 5,5 C 6,1 C 17,7 km/h (3 Bft) 100 %
23.12.2017 14:10 6,6 C 6,6 C 6,7 C 92 % 1033,1 hPa 0,0 l/m 7,2 km/h (2 Bft) S-SW 213 0 min 0,000 mm 16 W/m 5,4 C 5,9 C 16,1 km/h (3 Bft) 100 %
23.12.2017 14:20 6,6 C 6,6 C 6,6 C 92 % 1033,1 hPa 0,0 l/m 7,0 km/h (2 Bft) S-SW 211 0 min 0,000 mm 26 W/m 5,4 C 6,1 C 16,1 km/h (3 Bft) 100 %
23.12.2017 14:30 6,6 C 6,6 C 6,6 C 92 % 1033,1 hPa 0,0 l/m 6,8 km/h (2 Bft) S-SW 211 0 min 0,000 mm 12 W/m 5,4 C 6,3 C 17,7 km/h (3 Bft) 100 %
23.12.2017 14:40 6,5 C 6,5 C 6,6 C 92 % 1032,9 hPa 0,0 l/m 10,1 km/h (2 Bft) SW 225 0 min 0,000 mm 12 W/m 5,3 C 3,7 C 20,9 km/h (4 Bft) 100 %
23.12.2017 14:50 6,5 C 6,5 C 6,5 C 92 % 1032,9 hPa 0,0 l/m 9,1 km/h (2 Bft) SW 220 0 min 0,000 mm 11 W/m 5,3 C 4,4 C 25,7 km/h (4 Bft) 100 %
23.12.2017 15:00 6,4 C 6,4 C 6,5 C 92 % 1032,8 hPa 0,0 l/m 11,8 km/h (2 Bft) W-SW 247 0 min 0,025 mm 12 W/m 5,2 C 2,5 C 22,5 km/h (4 Bft) 100 %
23.12.2017 15:10 6,4 C 6,4 C 6,4 C 92 % 1032,8 hPa 0,0 l/m 12,2 km/h (2 Bft) S-SW 209 0 min 0,000 mm 14 W/m 5,2 C 2,3 C 24,1 km/h (4 Bft) 100 %
23.12.2017 15:20 6,4 C 6,4 C 6,4 C 92 % 1032,8 hPa 0,0 l/m 13,1 km/h (3 Bft) W-SW 257 0 min 0,000 mm 11 W/m 5,2 C 1,7 C 27,4 km/h (4 Bft) 100 %
23.12.2017 15:30 6,4 C 6,4 C 6,4 C 92 % 1032,8 hPa 0,0 l/m 11,8 km/h (2 Bft) S-SW 212 0 min 0,000 mm 11 W/m 5,2 C 2,5 C 24,1 km/h (4 Bft) 100 %
23.12.2017 15:40 6,4 C 6,4 C 6,4 C 92 % 1032,7 hPa 0,0 l/m 8,9 km/h (2 Bft) SW 225 0 min 0,000 mm 7 W/m 5,2 C 4,4 C 19,3 km/h (3 Bft) 100 %
23.12.2017 15:50 6,4 C 6,4 C 6,4 C 92 % 1032,8 hPa 0,0 l/m 9,1 km/h (2 Bft) W-SW 238 0 min 0,000 mm 5 W/m 5,2 C 4,2 C 20,9 km/h (4 Bft) 100 %
23.12.2017 16:00 6,4 C 6,4 C 6,4 C 92 % 1032,7 hPa 0,0 l/m 6,6 km/h (2 Bft) S-SW 211 0 min 0,000 mm 5 W/m 5,2 C 6,3 C 16,1 km/h (3 Bft) 100 %
23.12.2017 16:10 6,4 C 6,4 C 6,4 C 91 % 1032,8 hPa 0,0 l/m 7,5 km/h (2 Bft) W-SW 249 0 min 0,000 mm 0 W/m 5,0 C 5,5 C 17,7 km/h (3 Bft) 100 %
23.12.2017 16:20 6,4 C 6,4 C 6,4 C 92 % 1032,7 hPa 0,0 l/m 8,9 km/h (2 Bft) W-SW 237 0 min 0,000 mm 0 W/m 5,2 C 4,4 C 25,7 km/h (4 Bft) 100 %
23.12.2017 16:30 6,4 C 6,3 C 6,4 C 92 % 1032,8 hPa 0,0 l/m 8,2 km/h (2 Bft) SW 230 0 min 0,000 mm 0 W/m 5,2 C 4,9 C 20,9 km/h (4 Bft) 100 %
23.12.2017 16:40 6,3 C 6,3 C 6,4 C 92 % 1032,9 hPa 0,0 l/m 7,0 km/h (2 Bft) W-SW 250 0 min 0,000 mm 0 W/m 5,1 C 5,8 C 17,7 km/h (3 Bft) 100 %
23.12.2017 16:50 6,3 C 6,3 C 6,4 C 91 % 1032,8 hPa 0,0 l/m 8,3 km/h (2 Bft) S-SW 213 0 min 0,000 mm 0 W/m 4,9 C 4,7 C 20,9 km/h (4 Bft) 100 %
23.12.2017 17:00 6,3 C 6,3 C 6,3 C 91 % 1032,9 hPa 0,0 l/m 5,7 km/h (1 Bft) W-SW 239 0 min 0,000 mm 0 W/m 4,9 C 6,3 C 17,7 km/h (3 Bft) 100 %
23.12.2017 17:10 6,3 C 6,3 C 6,3 C 91 % 1032,8 hPa 0,0 l/m 9,1 km/h (2 Bft) W-SW 240 0 min 0,000 mm 0 W/m 4,9 C 4,1 C 19,3 km/h (3 Bft) 100 %
23.12.2017 17:20 6,3 C 6,3 C 6,3 C 91 % 1033,0 hPa 0,0 l/m 8,2 km/h (2 Bft) W-SW 252 0 min 0,000 mm 0 W/m 4,9 C 4,8 C 19,3 km/h (3 Bft) 100 %
23.12.2017 17:30 6,3 C 6,3 C 6,3 C 91 % 1032,9 hPa 0,0 l/m 7,7 km/h (2 Bft) SW 235 0 min 0,000 mm 0 W/m 4,9 C 5,2 C 17,7 km/h (3 Bft) 100 %
23.12.2017 17:40 6,3 C 6,3 C 6,3 C 91 % 1033,0 hPa 0,0 l/m 7,9 km/h (2 Bft) W 272 0 min 0,000 mm 0 W/m 4,9 C 5,0 C 24,1 km/h (4 Bft) 100 %
23.12.2017 17:50 6,2 C 6,2 C 6,3 C 91 % 1033,0 hPa 0,0 l/m 10,0 km/h (2 Bft) W-SW 248 0 min 0,000 mm 0 W/m 4,8 C 3,4 C 22,5 km/h (4 Bft) 100 %
23.12.2017 18:00 6,2 C 6,2 C 6,3 C 91 % 1032,9 hPa 0,0 l/m 7,2 km/h (2 Bft) SW 221 0 min 0,000 mm 0 W/m 4,8 C 5,5 C 20,9 km/h (4 Bft) 100 %
23.12.2017 18:10 6,2 C 6,2 C 6,2 C 91 % 1032,9 hPa 0,0 l/m 6,7 km/h (2 Bft) SW 233 0 min 0,000 mm 0 W/m 4,8 C 6,0 C 17,7 km/h (3 Bft) 100 %
23.12.2017 18:20 6,2 C 6,2 C 6,2 C 91 % 1032,9 hPa 0,0 l/m 6,4 km/h (2 Bft) W-SW 240 0 min 0,000 mm 0 W/m 4,8 C 6,2 C 16,1 km/h (3 Bft) 100 %
23.12.2017 18:30 6,2 C 6,2 C 6,2 C 91 % 1032,8 hPa 0,0 l/m 6,3 km/h (2 Bft) W-SW 257 0 min 0,000 mm 0 W/m 4,8 C 6,2 C 14,5 km/h (3 Bft) 100 %
23.12.2017 18:40 6,2 C 6,2 C 6,2 C 91 % 1032,8 hPa 0,0 l/m 6,0 km/h (2 Bft) SW 231 0 min 0,000 mm 0 W/m 4,8 C 6,2 C 16,1 km/h (3 Bft) 100 %
23.12.2017 18:50 6,2 C 6,1 C 6,2 C 91 % 1032,8 hPa 0,0 l/m 6,0 km/h (2 Bft) SW 225 0 min 0,000 mm 0 W/m 4,8 C 6,2 C 16,1 km/h (3 Bft) 100 %
23.12.2017 19:00 6,2 C 6,1 C 6,2 C 91 % 1032,8 hPa 0,0 l/m 5,6 km/h (1 Bft) SW 222 0 min 0,000 mm 0 W/m 4,8 C 6,2 C 17,7 km/h (3 Bft) 100 %
23.12.2017 19:10 6,1 C 6,1 C 6,2 C 91 % 1032,7 hPa 0,0 l/m 6,5 km/h (2 Bft) S-SW 209 0 min 0,000 mm 0 W/m 4,7 C 6,0 C 17,7 km/h (3 Bft) 99 %
23.12.2017 19:20 6,2 C 6,1 C 6,2 C 91 % 1032,7 hPa 0,0 l/m 8,0 km/h (2 Bft) S-SW 213 0 min 0,000 mm 0 W/m 4,8 C 4,9 C 17,7 km/h (3 Bft) 100 %
23.12.2017 19:30 6,1 C 6,1 C 6,2 C 91 % 1032,7 hPa 0,0 l/m 6,4 km/h (2 Bft) SW 227 0 min 0,000 mm 0 W/m 4,7 C 6,1 C 14,5 km/h (3 Bft) 100 %
23.12.2017 19:40 6,1 C 6,1 C 6,2 C 91 % 1032,6 hPa 0,0 l/m 5,9 km/h (2 Bft) SW 215 0 min 0,000 mm 0 W/m 4,7 C 6,1 C 20,9 km/h (4 Bft) 100 %
23.12.2017 19:50 6,1 C 6,1 C 6,2 C 91 % 1032,5 hPa 0,0 l/m 7,8 km/h (2 Bft) SW 234 0 min 0,000 mm 0 W/m 4,7 C 4,9 C 20,9 km/h (4 Bft) 100 %
23.12.2017 20:00 6,2 C 6,1 C 6,2 C 91 % 1032,6 hPa 0,0 l/m 6,4 km/h (2 Bft) SW 232 0 min 0,000 mm 0 W/m 4,8 C 6,2 C 17,7 km/h (3 Bft) 100 %
23.12.2017 20:10 6,2 C 6,1 C 6,2 C 91 % 1032,5 hPa 0,0 l/m 8,2 km/h (2 Bft) SW 227 0 min 0,000 mm 0 W/m 4,8 C 4,7 C 19,3 km/h (3 Bft) 100 %
23.12.2017 20:20 6,2 C 6,2 C 6,2 C 91 % 1032,4 hPa 0,0 l/m 8,9 km/h (2 Bft) W-SW 238 0 min 0,000 mm 0 W/m 4,8 C 4,2 C 19,3 km/h (3 Bft) 99 %
23.12.2017 20:30 6,2 C 6,2 C 6,2 C 91 % 1032,4 hPa 0,0 l/m 6,9 km/h (2 Bft) SW 214 0 min 0,000 mm 0 W/m 4,8 C 5,8 C 16,1 km/h (3 Bft) 100 %
23.12.2017 20:40 6,2 C 6,2 C 6,2 C 91 % 1032,4 hPa 0,0 l/m 6,9 km/h (2 Bft) W 259 0 min 0,000 mm 0 W/m 4,8 C 5,8 C 17,7 km/h (3 Bft) 99 %
23.12.2017 20:50 6,2 C 6,2 C 6,2 C 91 % 1032,4 hPa 0,0 l/m 6,2 km/h (2 Bft) W 267 0 min 0,000 mm 0 W/m 4,8 C 6,2 C 14,5 km/h (3 Bft) 98 %
23.12.2017 21:00 6,2 C 6,2 C 6,2 C 91 % 1032,5 hPa 0,0 l/m 8,2 km/h (2 Bft) W 271 0 min 0,000 mm 0 W/m 4,8 C 4,7 C 20,9 km/h (4 Bft) 98 %
23.12.2017 21:10 6,2 C 6,2 C 6,2 C 91 % 1032,3 hPa 0,0 l/m 9,7 km/h (2 Bft) SW 225 0 min 0,000 mm 0 W/m 4,8 C 3,6 C 20,9 km/h (4 Bft) 100 %
23.12.2017 21:20 6,2 C 6,2 C 6,2 C 91 % 1032,4 hPa 0,0 l/m 8,0 km/h (2 Bft) SW 225 0 min 0,000 mm 0 W/m 4,8 C 4,9 C 17,7 km/h (3 Bft) 100 %
23.12.2017 21:30 6,2 C 6,2 C 6,2 C 91 % 1032,3 hPa 0,0 l/m 8,0 km/h (2 Bft) SW 225 0 min 0,000 mm 0 W/m 4,8 C 4,9 C 20,9 km/h (4 Bft) 99 %
23.12.2017 21:40 6,2 C 6,2 C 6,2 C 91 % 1032,3 hPa 0,0 l/m 9,7 km/h (2 Bft) SW 225 0 min 0,000 mm 0 W/m 4,8 C 3,6 C 20,9 km/h (4 Bft) 100 %
23.12.2017 21:50 6,2 C 6,2 C 6,2 C 91 % 1032,3 hPa 0,0 l/m 6,4 km/h (2 Bft) SW 225 0 min 0,000 mm 0 W/m 4,8 C 6,2 C 16,1 km/h (3 Bft) 100 %
23.12.2017 22:00 6,2 C 6,2 C 6,2 C 91 % 1032,3 hPa 0,0 l/m 9,7 km/h (2 Bft) SW 225 0 min 0,000 mm 0 W/m 4,8 C 3,6 C 20,9 km/h (4 Bft) 100 %
23.12.2017 22:10 6,2 C 6,2 C 6,2 C 91 % 1032,2 hPa 0,0 l/m 9,7 km/h (2 Bft) SW 225 0 min 0,000 mm 0 W/m 4,8 C 3,6 C 20,9 km/h (4 Bft) 99 %
23.12.2017 22:20 6,2 C 6,2 C 6,2 C 91 % 1032,2 hPa 0,0 l/m 8,0 km/h (2 Bft) SW 225 0 min 0,000 mm 0 W/m 4,8 C 4,9 C 19,3 km/h (3 Bft) 100 %
23.12.2017 22:30 6,2 C 6,2 C 6,2 C 91 % 1032,1 hPa 0,0 l/m 9,7 km/h (2 Bft) SW 225 0 min 0,000 mm 0 W/m 4,8 C 3,6 C 22,5 km/h (4 Bft) 99 %
23.12.2017 22:40 6,2 C 6,2 C 6,2 C 91 % 1032,1 hPa 0,0 l/m 6,4 km/h (2 Bft) SW 225 0 min 0,000 mm 0 W/m 4,8 C 6,2 C 19,3 km/h (3 Bft) 100 %
23.12.2017 22:50 6,2 C 6,2 C 6,2 C 91 % 1032,1 hPa 0,0 l/m 11,3 km/h (2 Bft) SW 225 0 min 0,000 mm 0 W/m 4,8 C 2,6 C 24,1 km/h (4 Bft) 99 %
23.12.2017 23:00 6,2 C 6,2 C 6,2 C 91 % 1032,1 hPa 0,0 l/m 9,7 km/h (2 Bft) SW 225 0 min 0,000 mm 0 W/m 4,8 C 3,6 C 22,5 km/h (4 Bft) 88 %
23.12.2017 23:10 6,2 C 6,2 C 6,2 C 91 % 1032,1 hPa 0,0 l/m 9,7 km/h (2 Bft) SW 225 0 min 0,000 mm 0 W/m 4,8 C 3,6 C 19,3 km/h (3 Bft) 100 %
23.12.2017 23:20 6,2 C 6,1 C 6,2 C 91 % 1032,1 hPa 0,0 l/m 9,7 km/h (2 Bft) SW 225 0 min 0,000 mm 0 W/m 4,8 C 3,6 C 19,3 km/h (3 Bft) 100 %
23.12.2017 23:30 6,1 C 6,1 C 6,2 C 91 % 1032,1 hPa 0,0 l/m 9,7 km/h (2 Bft) SW 225 0 min 0,000 mm 0 W/m 4,7 C 3,5 C 25,7 km/h (4 Bft) 100 %
23.12.2017 23:40 6,1 C 6,1 C 6,1 C 91 % 1032,2 hPa 0,0 l/m 8,0 km/h (2 Bft) SW 225 0 min 0,000 mm 0 W/m 4,7 C 4,8 C 20,9 km/h (4 Bft) 100 %
23.12.2017 23:50 6,1 C 6,1 C 6,1 C 91 % 1032,1 hPa 0,0 l/m 11,3 km/h (2 Bft) SW 225 0 min 0,000 mm 0 W/m 4,7 C 2,4 C 29,0 km/h (5 Bft) 100 %
_ Min-Zeit 18:50 18:50 23:40 16:10 22:30 - 00:20 - - - - - 19:10 15:20 00:20 23:00
Minimum _ 6,1 C 6,1 C 6,1 C 91 % 1032,1 hPa - 0,0 km/h (0 Bft) - - - - - 4,7 C 1,7 C 0,0 km/h (0 Bft) 88 %
_ Max-Zeit 01:20 01:30 01:20 00:00 00:10 00:00 15:20 - - 00:00 12:00 10:30 01:20 01:20 23:50 00:00
Maximum _ 7,2 C 7,2 C 7,2 C 92 % 1035,3 hPa 0,0 l/m 13,1 km/h
W-SW (3 Bft)
- - 0 min 0,026 mm 44 W/m 6,0 C 7,2 C 29,0 km/h
SW (5 Bft)
100 %
Durchschnitt _ 6,6 C 6,6 C 6,6 C 92 % 1033,5 hPa #0,0 l/m 5,8 km/h (2 Bft) W-SW - #0 min. #0,127 mm 22 W/m 5,4 C 6,0 C 14,6 km/h (3 Bft) 100 %
PRIVATE WETTERSTATION BILLIGHEIM-ALLFELD - www.neckar-odenwald-wetter.de - Holger Sonntag